Time,TemperatureF,DewpointF,PressureIn,WindDirection,WindDirectionDegrees,WindSpeedMPH,WindSpeedGustMPH,Humidity,HourlyPrecipIn,Conditions,Clouds,dailyrainin,SoftwareType,DateUTC
2013-02-01 00:02:00,-6.8,-13.9,30.02,NW,315,6.5,7.8,71,0.00,,,0.00,WUHU216HW,2013-02-01 06:02:00,
2013-02-01 00:07:00,-6.8,-13.9,30.03,NW,315,6.9,8.5,71,0.00,,,0.00,WUHU216HW,2013-02-01 06:07:00,
2013-02-01 00:12:00,-6.8,-13.9,30.03,NW,315,5.8,8.5,71,0.00,,,0.00,WUHU216HW,2013-02-01 06:12:00,
2013-02-01 00:17:00,-6.8,-13.9,30.03,NW,315,3.1,6.9,71,0.00,,,0.00,WUHU216HW,2013-02-01 06:17:00,
2013-02-01 00:22:00,-6.8,-13.9,30.03,NW,315,6.3,7.2,71,0.00,,,0.00,WUHU216HW,2013-02-01 06:22:00,
2013-02-01 00:27:00,-7.0,-14.0,30.03,NW,315,1.1,8.3,71,0.00,,,0.00,WUHU216HW,2013-02-01 06:27:00,
2013-02-01 00:32:00,-7.0,-13.8,30.03,NW,315,2.5,8.3,72,0.00,,,0.00,WUHU216HW,2013-02-01 06:32:00,
2013-02-01 00:37:00,-7.0,-13.8,30.03,NW,315,1.3,10.1,72,0.00,,,0.00,WUHU216HW,2013-02-01 06:37:00,
2013-02-01 00:42:00,-7.2,-13.9,30.03,NW,315,2.9,10.1,72,0.00,,,0.00,WUHU216HW,2013-02-01 06:42:00,
2013-02-01 00:47:00,-7.2,-13.9,30.03,NW,315,5.1,8.3,72,0.00,,,0.00,WUHU216HW,2013-02-01 06:47:00,
2013-02-01 00:52:00,-7.2,-14.2,30.04,NW,315,3.6,8.3,71,0.00,,,0.00,WUHU216HW,2013-02-01 06:52:00,
2013-02-01 00:57:00,-7.4,-14.3,30.04,NW,315,4.3,5.6,71,0.00,,,0.00,WUHU216HW,2013-02-01 06:57:00,
2013-02-01 01:02:00,-7.4,-14.3,30.04,NW,315,5.6,6.3,71,0.00,,,0.00,WUHU216HW,2013-02-01 07:02:00,
2013-02-01 01:07:00,-7.6,-14.5,30.04,NW,315,2.7,6.3,71,0.00,,,0.00,WUHU216HW,2013-02-01 07:07:00,
2013-02-01 01:12:00,-7.6,-14.5,30.04,NW,315,2.5,7.2,71,0.00,,,0.00,WUHU216HW,2013-02-01 07:12:00,
2013-02-01 01:17:00,-7.6,-14.5,30.04,NW,315,2.5,7.2,71,0.00,,,0.00,WUHU216HW,2013-02-01 07:17:00,
2013-02-01 01:22:00,-7.6,-14.5,30.04,NW,315,6.9,6.9,71,0.00,,,0.00,WUHU216HW,2013-02-01 07:22:00,
2013-02-01 01:27:00,-7.7,-14.7,30.04,NW,315,3.4,9.8,71,0.00,,,0.00,WUHU216HW,2013-02-01 07:27:00,
2013-02-01 01:32:00,-7.7,-14.4,30.04,NW,315,4.3,9.8,72,0.00,,,0.00,WUHU216HW,2013-02-01 07:32:00,
2013-02-01 01:37:00,-7.7,-14.4,30.04,NW,315,6.9,7.2,72,0.00,,,0.00,WUHU216HW,2013-02-01 07:37:00,
2013-02-01 01:42:00,-7.9,-14.6,30.04,NW,315,1.8,7.2,72,0.00,,,0.00,WUHU216HW,2013-02-01 07:42:00,
2013-02-01 01:47:00,-7.9,-14.6,30.04,NW,315,1.6,5.6,72,0.00,,,0.00,WUHU216HW,2013-02-01 07:47:00,
2013-02-01 01:52:00,-8.1,-14.7,30.04,NW,315,5.4,6.3,72,0.00,,,0.00,WUHU216HW,2013-02-01 07:52:00,
2013-02-01 01:57:00,-8.1,-14.7,30.04,NW,315,4.3,6.9,72,0.00,,,0.00,WUHU216HW,2013-02-01 07:57:00,
2013-02-01 02:02:00,-8.3,-14.9,30.04,NW,315,4.7,6.9,72,0.00,,,0.00,WUHU216HW,2013-02-01 08:02:00,
2013-02-01 02:07:00,-8.3,-14.9,30.04,NW,315,2.9,7.8,72,0.00,,,0.00,WUHU216HW,2013-02-01 08:07:00,
2013-02-01 02:12:00,-8.3,-14.9,30.04,NW,315,5.1,7.8,72,0.00,,,0.00,WUHU216HW,2013-02-01 08:12:00,
2013-02-01 02:17:00,-8.3,-14.9,30.05,NW,315,4.0,7.4,72,0.00,,,0.00,WUHU216HW,2013-02-01 08:17:00,
2013-02-01 02:22:00,-8.3,-14.9,30.04,NW,315,4.9,5.6,72,0.00,,,0.00,WUHU216HW,2013-02-01 08:22:00,
2013-02-01 02:27:00,-8.5,-15.1,30.04,NW,315,4.0,5.4,72,0.00,,,0.00,WUHU216HW,2013-02-01 08:27:00,
2013-02-01 02:32:00,-8.5,-15.1,30.04,NW,315,2.2,6.7,72,0.00,,,0.00,WUHU216HW,2013-02-01 08:32:00,
2013-02-01 02:37:00,-8.6,-15.3,30.04,NW,315,1.6,6.7,72,0.00,,,0.00,WUHU216HW,2013-02-01 08:37:00,
2013-02-01 02:42:00,-8.6,-15.3,30.04,NW,315,4.0,6.9,72,0.00,,,0.00,WUHU216HW,2013-02-01 08:42:00,
2013-02-01 02:47:00,-8.6,-15.3,30.04,NW,315,4.3,6.9,72,0.00,,,0.00,WUHU216HW,2013-02-01 08:47:00,
2013-02-01 02:52:00,-8.8,-15.5,30.04,NW,315,3.6,5.6,72,0.00,,,0.00,WUHU216HW,2013-02-01 08:52:00,
2013-02-01 02:57:00,-8.8,-15.5,30.04,NW,315,2.9,5.1,72,0.00,,,0.00,WUHU216HW,2013-02-01 08:57:00,
2013-02-01 03:02:00,-8.8,-15.5,30.04,NW,315,2.0,5.4,72,0.00,,,0.00,WUHU216HW,2013-02-01 09:02:00,
2013-02-01 03:07:00,-8.8,-15.5,30.05,NW,315,1.1,5.4,72,0.00,,,0.00,WUHU216HW,2013-02-01 09:07:00,
2013-02-01 03:12:00,-8.8,-15.5,30.05,NW,315,0.4,4.7,72,0.00,,,0.00,WUHU216HW,2013-02-01 09:12:00,
2013-02-01 03:17:00,-9.0,-15.6,30.04,NW,315,2.0,4.0,72,0.00,,,0.00,WUHU216HW,2013-02-01 09:17:00,
2013-02-01 03:22:00,-9.0,-15.4,30.05,NW,315,4.0,4.5,73,0.00,,,0.00,WUHU216HW,2013-02-01 09:22:00,
2013-02-01 03:27:00,-9.0,-15.4,30.05,NW,315,2.0,4.5,73,0.00,,,0.00,WUHU216HW,2013-02-01 09:27:00,
2013-02-01 03:32:00,-9.0,-15.4,30.05,NW,315,3.4,4.9,73,0.00,,,0.00,WUHU216HW,2013-02-01 09:32:00,
2013-02-01 03:37:00,-9.0,-15.4,30.04,NW,315,2.2,4.9,73,0.00,,,0.00,WUHU216HW,2013-02-01 09:37:00,
2013-02-01 03:42:00,-9.2,-15.6,30.05,NW,315,1.1,4.0,73,0.00,,,0.00,WUHU216HW,2013-02-01 09:42:00,
2013-02-01 03:47:00,-9.2,-15.6,30.05,NW,315,2.2,4.0,73,0.00,,,0.00,WUHU216HW,2013-02-01 09:47:00,
2013-02-01 03:52:00,-9.2,-15.6,30.05,NW,315,2.0,3.6,73,0.00,,,0.00,WUHU216HW,2013-02-01 09:52:00,
2013-02-01 03:57:00,-9.2,-15.6,30.05,NW,315,2.5,3.6,73,0.00,,,0.00,WUHU216HW,2013-02-01 09:57:00,
2013-02-01 04:02:00,-9.4,-15.7,30.05,NW,315,0.4,4.0,73,0.00,,,0.00,WUHU216HW,2013-02-01 10:02:00,
2013-02-01 04:07:00,-9.4,-15.7,30.06,NW,315,0.2,4.0,73,0.00,,,0.00,WUHU216HW,2013-02-01 10:07:00,
2013-02-01 04:12:00,-9.4,-15.7,30.06,NW,315,1.1,4.5,73,0.00,,,0.00,WUHU216HW,2013-02-01 10:12:00,
2013-02-01 04:17:00,-9.5,-15.9,30.06,NW,315,1.1,4.5,73,0.00,,,0.00,WUHU216HW,2013-02-01 10:17:00,
2013-02-01 04:22:00,-9.5,-15.9,30.06,NW,315,2.0,3.1,73,0.00,,,0.00,WUHU216HW,2013-02-01 10:22:00,
2013-02-01 04:27:00,-9.5,-15.9,30.06,NW,315,2.7,5.1,73,0.00,,,0.00,WUHU216HW,2013-02-01 10:27:00,
2013-02-01 04:32:00,-9.5,-15.9,30.06,NW,315,0.7,5.1,73,0.00,,,0.00,WUHU216HW,2013-02-01 10:32:00,
2013-02-01 04:37:00,-9.7,-16.1,30.06,NW,315,1.6,4.0,73,0.00,,,0.00,WUHU216HW,2013-02-01 10:37:00,
2013-02-01 04:42:00,-9.7,-16.1,30.06,NW,315,3.1,4.0,73,0.00,,,0.00,WUHU216HW,2013-02-01 10:42:00,
2013-02-01 04:47:00,-9.7,-16.1,30.06,NW,315,2.2,6.7,73,0.00,,,0.00,WUHU216HW,2013-02-01 10:47:00,
2013-02-01 04:52:00,-9.7,-16.1,30.06,NW,315,4.5,6.7,73,0.00,,,0.00,WUHU216HW,2013-02-01 10:52:00,
2013-02-01 04:57:00,-9.7,-16.1,30.06,NW,315,2.5,5.4,73,0.00,,,0.00,WUHU216HW,2013-02-01 10:57:00,
2013-02-01 05:02:00,-9.7,-16.1,30.07,NW,315,0.7,5.4,73,0.00,,,0.00,WUHU216HW,2013-02-01 11:02:00,
2013-02-01 05:07:00,-9.7,-16.1,30.06,NW,315,2.9,4.3,73,0.00,,,0.00,WUHU216HW,2013-02-01 11:07:00,
2013-02-01 05:12:00,-9.7,-16.1,30.06,NW,315,1.1,4.3,73,0.00,,,0.00,WUHU216HW,2013-02-01 11:12:00,
2013-02-01 05:17:00,-9.7,-16.1,30.06,NW,315,1.3,4.0,73,0.00,,,0.00,WUHU216HW,2013-02-01 11:17:00,
2013-02-01 05:22:00,-9.9,-16.3,30.06,NW,315,0.4,4.0,73,0.00,,,0.00,WUHU216HW,2013-02-01 11:22:00,
2013-02-01 05:27:00,-9.9,-16.3,30.06,NW,315,3.4,4.0,73,0.00,,,0.00,WUHU216HW,2013-02-01 11:27:00,
2013-02-01 05:32:00,-9.9,-16.3,30.07,NW,315,1.8,4.5,73,0.00,,,0.00,WUHU216HW,2013-02-01 11:32:00,
2013-02-01 05:37:00,-10.1,-16.5,30.07,NW,315,1.3,6.0,73,0.00,,,0.00,WUHU216HW,2013-02-01 11:37:00,
2013-02-01 05:42:00,-10.1,-16.5,30.07,NW,315,1.1,6.0,73,0.00,,,0.00,WUHU216HW,2013-02-01 11:42:00,
2013-02-01 05:47:00,-10.1,-16.5,30.07,NW,315,2.9,3.1,73,0.00,,,0.00,WUHU216HW,2013-02-01 11:47:00,
2013-02-01 05:52:00,-10.1,-16.5,30.07,NW,315,1.1,4.0,73,0.00,,,0.00,WUHU216HW,2013-02-01 11:52:00,
2013-02-01 05:57:00,-10.3,-16.6,30.07,NW,315,0.9,4.0,73,0.00,,,0.00,WUHU216HW,2013-02-01 11:57:00,
2013-02-01 06:02:00,-10.3,-16.6,30.07,NW,315,3.1,3.4,73,0.00,,,0.00,WUHU216HW,2013-02-01 12:02:00,
2013-02-01 06:07:00,-10.3,-16.6,30.07,NW,315,1.1,4.0,73,0.00,,,0.00,WUHU216HW,2013-02-01 12:07:00,
2013-02-01 06:12:00,-10.4,-16.8,30.06,NW,315,2.5,4.0,73,0.00,,,0.00,WUHU216HW,2013-02-01 12:12:00,
2013-02-01 06:17:00,-10.4,-16.8,30.07,NW,315,2.7,4.7,73,0.00,,,0.00,WUHU216HW,2013-02-01 12:17:00,
2013-02-01 06:22:00,-10.4,-16.8,30.07,NW,315,2.5,4.7,73,0.00,,,0.00,WUHU216HW,2013-02-01 12:22:00,
2013-02-01 06:27:00,-10.4,-16.6,30.07,NW,315,3.4,4.5,74,0.00,,,0.00,WUHU216HW,2013-02-01 12:27:00,
2013-02-01 06:32:00,-10.4,-16.6,30.07,NW,315,2.2,3.8,74,0.00,,,0.00,WUHU216HW,2013-02-01 12:32:00,
2013-02-01 06:37:00,-10.4,-16.6,30.07,NW,315,1.1,3.8,74,0.00,,,0.00,WUHU216HW,2013-02-01 12:37:00,
2013-02-01 06:42:00,-10.6,-16.7,30.07,NW,315,0.7,3.4,74,0.00,,,0.00,WUHU216HW,2013-02-01 12:42:00,
2013-02-01 06:47:00,-10.6,-16.7,30.07,NW,315,0.7,3.4,74,0.00,,,0.00,WUHU216HW,2013-02-01 12:47:00,
2013-02-01 06:52:00,-10.6,-16.7,30.07,NW,315,0.2,4.0,74,0.00,,,0.00,WUHU216HW,2013-02-01 12:52:00,
2013-02-01 06:57:00,-10.6,-16.7,30.07,NW,315,1.8,4.0,74,0.00,,,0.00,WUHU216HW,2013-02-01 12:57:00,
2013-02-01 07:02:00,-10.6,-16.7,30.06,NW,315,0.2,3.4,74,0.00,,,0.00,WUHU216HW,2013-02-01 13:02:00,
2013-02-01 07:07:00,-10.6,-16.7,30.07,NW,315,0.2,2.2,74,0.00,,,0.00,WUHU216HW,2013-02-01 13:07:00,
2013-02-01 07:12:00,-10.6,-16.7,30.06,NW,315,0.4,1.8,74,0.00,,,0.00,WUHU216HW,2013-02-01 13:12:00,
2013-02-01 07:17:00,-10.8,-16.9,30.06,NW,315,0.9,3.6,74,0.00,,,0.00,WUHU216HW,2013-02-01 13:17:00,
2013-02-01 07:22:00,-10.8,-16.9,30.06,NW,315,2.5,3.6,74,0.00,,,0.00,WUHU216HW,2013-02-01 13:22:00,
2013-02-01 07:27:00,-10.8,-16.9,30.06,NW,315,1.1,2.9,74,0.00,,,0.00,WUHU216HW,2013-02-01 13:27:00,
2013-02-01 07:32:00,-10.8,-16.9,30.06,NW,315,1.6,2.5,74,0.00,,,0.00,WUHU216HW,2013-02-01 13:32:00,
2013-02-01 07:37:00,-10.8,-16.9,30.06,NW,315,0.0,1.8,74,0.00,,,0.00,WUHU216HW,2013-02-01 13:37:00,
2013-02-01 07:42:00,-10.8,-16.9,30.06,NW,315,1.3,1.8,74,0.00,,,0.00,WUHU216HW,2013-02-01 13:42:00,
2013-02-01 07:47:00,-10.8,-16.9,30.06,NW,315,0.0,1.3,74,0.00,,,0.00,WUHU216HW,2013-02-01 13:47:00,
2013-02-01 07:52:00,-10.8,-16.9,30.06,NW,315,0.2,1.3,74,0.00,,,0.00,WUHU216HW,2013-02-01 13:52:00,
2013-02-01 07:57:00,-10.6,-16.7,30.06,NW,315,0.2,1.1,74,0.00,,,0.00,WUHU216HW,2013-02-01 13:57:00,
2013-02-01 08:02:00,-10.6,-16.7,30.05,NW,315,3.4,3.4,74,0.00,,,0.00,WUHU216HW,2013-02-01 14:02:00,
2013-02-01 08:07:00,-10.4,-16.6,30.05,NW,315,0.0,3.4,74,0.00,,,0.00,WUHU216HW,2013-02-01 14:07:00,
2013-02-01 08:12:00,-10.4,-16.6,30.05,NW,315,0.4,2.2,74,0.00,,,0.00,WUHU216HW,2013-02-01 14:12:00,
2013-02-01 08:17:00,-10.4,-16.6,30.05,NW,315,0.7,2.7,74,0.00,,,0.00,WUHU216HW,2013-02-01 14:17:00,
2013-02-01 08:22:00,-10.3,-16.4,30.05,NW,315,0.4,3.1,74,0.00,,,0.00,WUHU216HW,2013-02-01 14:22:00,
2013-02-01 08:27:00,-9.5,-15.7,30.05,NW,315,1.8,3.1,74,0.00,,,0.00,WUHU216HW,2013-02-01 14:27:00,
2013-02-01 08:32:00,-8.3,-14.2,30.05,NW,315,0.4,2.9,75,0.00,,,0.00,WUHU216HW,2013-02-01 14:32:00,
2013-02-01 08:37:00,-6.8,-12.6,30.05,NW,315,3.6,3.6,76,0.00,,,0.00,WUHU216HW,2013-02-01 14:37:00,
2013-02-01 08:42:00,-6.3,-12.3,30.05,NW,315,0.7,4.3,75,0.00,,,0.00,WUHU216HW,2013-02-01 14:42:00,
2013-02-01 08:47:00,-5.8,-11.8,30.05,NW,315,0.9,4.3,75,0.00,,,0.00,WUHU216HW,2013-02-01 14:47:00,
2013-02-01 08:52:00,-5.4,-11.7,30.05,NW,315,2.5,3.4,74,0.00,,,0.00,WUHU216HW,2013-02-01 14:52:00,
2013-02-01 08:57:00,-5.2,-11.8,30.05,NW,315,0.4,3.4,73,0.00,,,0.00,WUHU216HW,2013-02-01 14:57:00,
2013-02-01 09:02:00,-4.5,-10.8,30.04,NW,315,0.4,3.4,74,0.00,,,0.00,WUHU216HW,2013-02-01 15:02:00,
2013-02-01 09:07:00,-3.8,-10.1,30.04,NW,315,1.8,2.9,74,0.00,,,0.00,WUHU216HW,2013-02-01 15:07:00,
2013-02-01 09:12:00,-3.2,-9.5,30.04,NW,315,0.9,2.9,74,0.00,,,0.00,WUHU216HW,2013-02-01 15:12:00,
2013-02-01 09:17:00,-3.2,-10.1,30.04,NW,315,2.5,3.1,72,0.00,,,0.00,WUHU216HW,2013-02-01 15:17:00,
2013-02-01 09:22:00,-4.0,-11.1,30.04,NW,315,1.8,3.1,71,0.00,,,0.00,WUHU216HW,2013-02-01 15:22:00,
2013-02-01 09:27:00,-3.8,-10.6,30.04,NW,315,1.8,2.7,72,0.00,,,0.00,WUHU216HW,2013-02-01 15:27:00,
2013-02-01 09:32:00,-3.2,-10.3,30.04,NW,315,0.0,2.7,71,0.00,,,0.00,WUHU216HW,2013-02-01 15:32:00,
2013-02-01 09:37:00,-2.5,-9.6,30.04,NW,315,0.0,2.5,71,0.00,,,0.00,WUHU216HW,2013-02-01 15:37:00,
2013-02-01 09:42:00,-2.0,-9.1,30.04,NW,315,1.1,4.3,71,0.00,,,0.00,WUHU216HW,2013-02-01 15:42:00,
2013-02-01 09:47:00,-1.3,-8.5,30.03,NW,315,1.6,4.3,71,0.00,,,0.00,WUHU216HW,2013-02-01 15:47:00,
2013-02-01 09:52:00,-0.7,-7.9,30.03,NW,315,0.4,3.1,71,0.00,,,0.00,WUHU216HW,2013-02-01 15:52:00,
2013-02-01 09:57:00,-0.7,-8.5,30.03,NW,315,0.7,3.8,69,0.00,,,0.00,WUHU216HW,2013-02-01 15:57:00,
2013-02-01 10:02:00,0.0,-7.8,30.03,NW,315,2.2,3.8,69,0.00,,,0.00,WUHU216HW,2013-02-01 16:02:00,
2013-02-01 10:07:00,0.7,-6.8,30.03,NW,315,1.8,3.4,70,0.00,,,0.00,WUHU216HW,2013-02-01 16:07:00,
2013-02-01 10:12:00,1.3,-6.3,30.03,NW,315,1.1,3.4,70,0.00,,,0.00,WUHU216HW,2013-02-01 16:12:00,
2013-02-01 10:17:00,1.1,-7.1,30.03,NW,315,0.0,2.2,68,0.00,,,0.00,WUHU216HW,2013-02-01 16:17:00,
2013-02-01 10:22:00,0.2,-8.3,30.03,NW,315,2.7,3.8,67,0.00,,,0.00,WUHU216HW,2013-02-01 16:22:00,
2013-02-01 10:27:00,0.0,-8.4,30.03,NW,315,0.4,3.8,67,0.00,,,0.00,WUHU216HW,2013-02-01 16:27:00,
2013-02-01 10:32:00,0.5,-8.3,30.03,NW,315,0.4,3.1,66,0.00,,,0.00,WUHU216HW,2013-02-01 16:32:00,
2013-02-01 10:37:00,2.2,-6.4,30.03,NW,315,0.7,3.1,67,0.00,,,0.00,WUHU216HW,2013-02-01 16:37:00,
2013-02-01 10:42:00,4.0,-4.7,30.03,NW,315,1.1,3.4,67,0.00,,,0.00,WUHU216HW,2013-02-01 16:42:00,
2013-02-01 10:47:00,5.0,-3.9,30.03,NW,315,1.8,4.0,66,0.00,,,0.00,WUHU216HW,2013-02-01 16:47:00,
2013-02-01 10:52:00,4.5,-6.7,30.03,NW,315,1.8,5.4,59,0.00,,,0.00,WUHU216HW,2013-02-01 16:52:00,
2013-02-01 10:57:00,2.7,-9.2,30.03,NW,315,2.5,5.4,57,0.00,,,0.00,WUHU216HW,2013-02-01 16:57:00,
2013-02-01 11:02:00,1.8,-9.7,30.03,NW,315,0.4,5.1,58,0.00,,,0.00,WUHU216HW,2013-02-01 17:02:00,
2013-02-01 11:07:00,2.2,-9.0,30.03,NW,315,3.6,3.6,59,0.00,,,0.00,WUHU216HW,2013-02-01 17:07:00,
2013-02-01 11:12:00,0.7,-11.1,30.03,NW,315,0.4,3.8,57,0.00,,,0.00,WUHU216HW,2013-02-01 17:12:00,
2013-02-01 11:17:00,0.2,-11.2,30.02,NW,315,1.8,3.8,58,0.00,,,0.00,WUHU216HW,2013-02-01 17:17:00,
2013-02-01 11:22:00,0.4,-10.7,30.02,NW,315,0.9,3.6,59,0.00,,,0.00,WUHU216HW,2013-02-01 17:22:00,
2013-02-01 11:27:00,0.2,-11.2,30.02,NW,315,2.2,2.9,58,0.00,,,0.00,WUHU216HW,2013-02-01 17:27:00,
2013-02-01 11:32:00,0.5,-10.5,30.02,NW,315,1.8,2.9,59,0.00,,,0.00,WUHU216HW,2013-02-01 17:32:00,
2013-02-01 11:37:00,0.4,-11.1,30.02,NW,315,1.8,4.0,58,0.00,,,0.00,WUHU216HW,2013-02-01 17:37:00,
2013-02-01 11:42:00,0.4,-10.7,30.01,NW,315,3.1,4.0,59,0.00,,,0.00,WUHU216HW,2013-02-01 17:42:00,
2013-02-01 11:47:00,0.7,-10.7,30.01,NW,315,2.0,3.6,58,0.00,,,0.00,WUHU216HW,2013-02-01 17:47:00,
2013-02-01 11:52:00,2.2,-8.6,30.01,NW,315,0.9,3.1,60,0.00,,,0.00,WUHU216HW,2013-02-01 17:52:00,
2013-02-01 11:57:00,2.5,-9.3,30.01,NW,315,2.5,4.3,57,0.00,,,0.00,WUHU216HW,2013-02-01 17:57:00,
2013-02-01 12:02:00,3.1,-8.9,30.01,NW,315,1.8,4.3,57,0.00,,,0.00,WUHU216HW,2013-02-01 18:02:00,
2013-02-01 12:07:00,3.8,-8.2,30.00,NW,315,2.7,3.4,57,0.00,,,0.00,WUHU216HW,2013-02-01 18:07:00,
2013-02-01 12:12:00,3.2,-9.1,30.00,NW,315,0.4,3.6,56,0.00,,,0.00,WUHU216HW,2013-02-01 18:12:00,
2013-02-01 12:17:00,2.7,-9.6,30.00,NW,315,3.6,3.8,56,0.00,,,0.00,WUHU216HW,2013-02-01 18:17:00,
2013-02-01 12:22:00,2.2,-9.7,30.00,NW,315,2.5,4.3,57,0.00,,,0.00,WUHU216HW,2013-02-01 18:22:00,
2013-02-01 12:27:00,1.6,-10.2,30.00,NW,315,0.7,4.3,57,0.00,,,0.00,WUHU216HW,2013-02-01 18:27:00,
2013-02-01 12:32:00,2.0,-9.5,29.99,NW,315,2.5,3.4,58,0.00,,,0.00,WUHU216HW,2013-02-01 18:32:00,
2013-02-01 12:37:00,2.9,-9.0,29.99,NW,315,1.3,3.4,57,0.00,,,0.00,WUHU216HW,2013-02-01 18:37:00,
2013-02-01 12:42:00,3.4,-8.2,29.99,NW,315,4.3,4.3,58,0.00,,,0.00,WUHU216HW,2013-02-01 18:42:00,
2013-02-01 12:47:00,3.2,-9.1,29.99,NW,315,2.0,5.6,56,0.00,,,0.00,WUHU216HW,2013-02-01 18:47:00,
2013-02-01 12:52:00,2.9,-9.0,29.99,NW,315,2.9,5.6,57,0.00,,,0.00,WUHU216HW,2013-02-01 18:52:00,
2013-02-01 12:57:00,2.9,-9.0,29.98,NW,315,4.0,4.7,57,0.00,,,0.00,WUHU216HW,2013-02-01 18:57:00,
2013-02-01 13:02:00,2.7,-9.2,29.98,NW,315,1.1,4.7,57,0.00,,,0.00,WUHU216HW,2013-02-01 19:02:00,
2013-02-01 13:07:00,2.9,-9.0,29.97,NW,315,2.5,4.7,57,0.00,,,0.00,WUHU216HW,2013-02-01 19:07:00,
2013-02-01 13:12:00,3.6,-8.0,29.97,NW,315,1.1,4.5,58,0.00,,,0.00,WUHU216HW,2013-02-01 19:12:00,
2013-02-01 13:17:00,4.0,-6.9,29.98,NW,315,1.1,4.7,60,0.00,,,0.00,WUHU216HW,2013-02-01 19:17:00,
2013-02-01 13:22:00,3.4,-8.5,29.98,NW,315,2.5,4.9,57,0.00,,,0.00,WUHU216HW,2013-02-01 19:22:00,
2013-02-01 13:27:00,3.2,-8.3,29.97,NW,315,1.8,4.9,58,0.00,,,0.00,WUHU216HW,2013-02-01 19:27:00,
2013-02-01 13:32:00,3.2,-8.7,29.97,NW,315,1.1,4.5,57,0.00,,,0.00,WUHU216HW,2013-02-01 19:32:00,
2013-02-01 13:37:00,3.6,-8.0,29.96,NW,315,2.7,4.7,58,0.00,,,0.00,WUHU216HW,2013-02-01 19:37:00,
2013-02-01 13:42:00,3.6,-8.4,29.96,NW,315,3.1,4.7,57,0.00,,,0.00,WUHU216HW,2013-02-01 19:42:00,
2013-02-01 13:47:00,4.0,-7.6,29.95,NW,315,2.0,4.5,58,0.00,,,0.00,WUHU216HW,2013-02-01 19:47:00,
2013-02-01 13:52:00,4.5,-7.6,29.94,NW,315,0.9,4.3,57,0.00,,,0.00,WUHU216HW,2013-02-01 19:52:00,
2013-02-01 13:57:00,4.5,-7.6,29.94,NW,315,2.0,4.0,57,0.00,,,0.00,WUHU216HW,2013-02-01 19:57:00,
2013-02-01 14:02:00,4.7,-7.4,29.94,NW,315,4.0,4.7,57,0.00,,,0.00,WUHU216HW,2013-02-01 20:02:00,
2013-02-01 14:07:00,4.3,-7.6,29.94,NW,315,2.5,4.7,57,0.00,,,0.00,WUHU216HW,2013-02-01 20:07:00,
2013-02-01 14:12:00,4.5,-6.7,29.94,NW,315,0.9,4.0,59,0.00,,,0.00,WUHU216HW,2013-02-01 20:12:00,
2013-02-01 14:17:00,4.7,-6.7,29.93,NW,315,1.8,3.4,59,0.00,,,0.00,WUHU216HW,2013-02-01 20:17:00,
2013-02-01 14:22:00,4.3,-6.9,29.93,NW,315,0.9,4.7,59,0.00,,,0.00,WUHU216HW,2013-02-01 20:22:00,
2013-02-01 14:27:00,4.7,-6.7,29.93,NW,315,4.5,4.9,59,0.00,,,0.00,WUHU216HW,2013-02-01 20:27:00,
2013-02-01 14:32:00,4.5,-6.7,29.93,NW,315,0.4,4.9,59,0.00,,,0.00,WUHU216HW,2013-02-01 20:32:00,
2013-02-01 14:37:00,4.5,-7.2,29.93,NW,315,1.1,4.7,58,0.00,,,0.00,WUHU216HW,2013-02-01 20:37:00,
2013-02-01 14:42:00,4.7,-6.7,29.93,NW,315,0.4,4.0,59,0.00,,,0.00,WUHU216HW,2013-02-01 20:42:00,
2013-02-01 14:47:00,4.5,-6.4,29.92,NW,315,2.0,4.0,60,0.00,,,0.00,WUHU216HW,2013-02-01 20:47:00,
2013-02-01 14:52:00,4.3,-6.6,29.91,NW,315,1.3,4.0,60,0.00,,,0.00,WUHU216HW,2013-02-01 20:52:00,
2013-02-01 14:57:00,4.3,-6.6,29.91,NW,315,0.7,4.0,60,0.00,,,0.00,WUHU216HW,2013-02-01 20:57:00,
2013-02-01 15:02:00,4.5,-6.4,29.91,NW,315,0.9,2.5,60,0.00,,,0.00,WUHU216HW,2013-02-01 21:02:00,
2013-02-01 15:07:00,4.7,-6.3,29.91,NW,315,1.8,2.5,60,0.00,,,0.00,WUHU216HW,2013-02-01 21:07:00,
2013-02-01 15:12:00,4.5,-6.4,29.91,NW,315,1.1,3.4,60,0.00,,,0.00,WUHU216HW,2013-02-01 21:12:00,
2013-02-01 15:17:00,4.5,-6.4,29.91,NW,315,0.7,3.4,60,0.00,,,0.00,WUHU216HW,2013-02-01 21:17:00,
2013-02-01 15:22:00,4.7,-5.9,29.90,NW,315,1.3,2.9,61,0.00,,,0.00,WUHU216HW,2013-02-01 21:22:00,
2013-02-01 15:27:00,4.5,-6.1,29.90,NW,315,0.4,3.4,61,0.00,,,0.00,WUHU216HW,2013-02-01 21:27:00,
2013-02-01 15:32:00,4.5,-6.1,29.90,NW,315,0.4,3.4,61,0.00,,,0.00,WUHU216HW,2013-02-01 21:32:00,
2013-02-01 15:37:00,4.5,-5.7,29.89,NW,315,0.7,3.1,62,0.00,,,0.00,WUHU216HW,2013-02-01 21:37:00,
2013-02-01 15:42:00,4.7,-5.6,29.89,NW,315,0.2,2.9,62,0.00,,,0.00,WUHU216HW,2013-02-01 21:42:00,
2013-02-01 15:47:00,4.7,-5.3,29.89,NW,315,0.7,2.9,63,0.00,,,0.00,WUHU216HW,2013-02-01 21:47:00,
2013-02-01 15:52:00,4.7,-5.3,29.89,NW,315,0.4,2.9,63,0.00,,,0.00,WUHU216HW,2013-02-01 21:52:00,
2013-02-01 15:57:00,4.9,-4.8,29.89,NW,315,0.7,2.9,64,0.00,,,0.00,WUHU216HW,2013-02-01 21:57:00,
2013-02-01 16:02:00,5.0,-4.7,29.88,NW,315,0.2,2.7,64,0.00,,,0.00,WUHU216HW,2013-02-01 22:02:00,
2013-02-01 16:07:00,5.2,-4.5,29.88,NW,315,2.2,2.7,64,0.00,,,0.00,WUHU216HW,2013-02-01 22:07:00,
2013-02-01 16:12:00,5.2,-4.1,29.88,NW,315,2.0,2.5,65,0.00,,,0.00,WUHU216HW,2013-02-01 22:12:00,
2013-02-01 16:17:00,5.2,-4.1,29.87,NW,315,0.9,2.0,65,0.00,,,0.00,WUHU216HW,2013-02-01 22:17:00,
2013-02-01 16:22:00,5.2,-3.5,29.88,NW,315,0.9,2.5,67,0.00,,,0.00,WUHU216HW,2013-02-01 22:22:00,
2013-02-01 16:27:00,5.4,-3.3,29.88,NW,315,0.7,2.5,67,0.00,,,0.00,WUHU216HW,2013-02-01 22:27:00,
2013-02-01 16:32:00,5.4,-3.3,29.88,NW,315,0.4,1.8,67,0.00,,,0.00,WUHU216HW,2013-02-01 22:32:00,
2013-02-01 16:37:00,5.4,-3.3,29.88,NW,315,0.7,1.3,67,0.00,,,0.00,WUHU216HW,2013-02-01 22:37:00,
2013-02-01 16:42:00,5.4,-3.3,29.87,NW,315,0.4,1.8,67,0.00,,,0.00,WUHU216HW,2013-02-01 22:42:00,
2013-02-01 16:47:00,5.2,-2.5,29.87,NW,315,0.7,2.2,70,0.00,,,0.00,WUHU216HW,2013-02-01 22:47:00,
2013-02-01 16:52:00,5.2,-2.5,29.86,NW,315,1.6,2.2,70,0.00,,,0.00,WUHU216HW,2013-02-01 22:52:00,
2013-02-01 16:57:00,5.4,-2.3,29.86,NW,315,0.4,2.2,70,0.00,,,0.00,WUHU216HW,2013-02-01 22:57:00,
2013-02-01 17:02:00,5.4,-2.7,29.86,NW,315,0.0,2.2,69,0.00,,,0.00,WUHU216HW,2013-02-01 23:02:00,
2013-02-01 17:07:00,5.6,-2.5,29.86,NW,315,0.0,0.4,69,0.00,,,0.00,WUHU216HW,2013-02-01 23:07:00,
2013-02-01 17:12:00,5.8,-2.3,29.86,NW,315,0.0,0.4,69,0.00,,,0.00,WUHU216HW,2013-02-01 23:12:00,
2013-02-01 17:17:00,5.9,-1.8,29.86,NW,315,0.0,0.7,70,0.00,,,0.00,WUHU216HW,2013-02-01 23:17:00,
2013-02-01 17:22:00,6.1,-1.6,29.87,NW,315,0.0,0.7,70,0.00,,,0.00,WUHU216HW,2013-02-01 23:22:00,
2013-02-01 17:27:00,6.1,-1.6,29.87,NW,315,0.4,0.4,70,0.00,,,0.00,WUHU216HW,2013-02-01 23:27:00,
2013-02-01 17:32:00,6.1,-1.6,29.87,NW,315,0.0,0.4,70,0.00,,,0.00,WUHU216HW,2013-02-01 23:32:00,
2013-02-01 17:37:00,6.1,-1.6,29.86,NW,315,0.0,0.4,70,0.00,,,0.00,WUHU216HW,2013-02-01 23:37:00,
2013-02-01 17:42:00,6.1,-1.6,29.86,NW,315,0.0,0.4,70,0.00,,,0.00,WUHU216HW,2013-02-01 23:42:00,
2013-02-01 17:47:00,6.1,-1.6,29.86,NW,315,0.0,0.4,70,0.00,,,0.00,WUHU216HW,2013-02-01 23:47:00,
2013-02-01 17:52:00,6.1,-1.6,29.86,NW,315,1.1,1.1,70,0.00,,,0.00,WUHU216HW,2013-02-01 23:52:00,
2013-02-01 17:57:00,6.1,-1.6,29.86,NW,315,0.0,1.1,70,0.00,,,0.00,WUHU216HW,2013-02-01 23:57:00,
2013-02-01 18:02:00,6.1,-1.3,29.86,NW,315,0.2,1.3,71,0.00,,,0.00,WUHU216HW,2013-02-02 00:02:00,
2013-02-01 18:07:00,5.9,-1.3,29.86,NW,315,1.1,2.5,72,0.00,,,0.00,WUHU216HW,2013-02-02 00:07:00,
2013-02-01 18:12:00,5.9,-1.3,29.86,NW,315,0.2,2.5,72,0.00,,,0.00,WUHU216HW,2013-02-02 00:12:00,
2013-02-01 18:17:00,5.9,-1.3,29.86,NW,315,0.0,1.1,72,0.00,,,0.00,WUHU216HW,2013-02-02 00:17:00,
2013-02-01 18:22:00,5.9,-0.9,29.86,NW,315,0.0,1.6,73,0.00,,,0.00,WUHU216HW,2013-02-02 00:22:00,
2013-02-01 18:27:00,5.8,-1.1,29.86,NW,315,0.2,1.8,73,0.00,,,0.00,WUHU216HW,2013-02-02 00:27:00,
2013-02-01 18:32:00,5.9,-0.9,29.86,NW,315,0.2,1.8,73,0.00,,,0.00,WUHU216HW,2013-02-02 00:32:00,
2013-02-01 18:37:00,5.8,-1.1,29.86,NW,315,0.2,1.3,73,0.00,,,0.00,WUHU216HW,2013-02-02 00:37:00,
2013-02-01 18:42:00,5.8,-1.1,29.86,NW,315,1.1,1.3,73,0.00,,,0.00,WUHU216HW,2013-02-02 00:42:00,
2013-02-01 18:47:00,5.9,-0.9,29.86,NW,315,0.2,1.1,73,0.00,,,0.00,WUHU216HW,2013-02-02 00:47:00,
2013-02-01 18:52:00,5.9,-0.9,29.86,NW,315,0.0,1.1,73,0.00,,,0.00,WUHU216HW,2013-02-02 00:52:00,
2013-02-01 18:57:00,5.8,-1.1,29.86,NW,315,0.4,1.1,73,0.00,,,0.00,WUHU216HW,2013-02-02 00:57:00,
2013-02-01 19:02:00,5.6,-0.7,29.85,NW,315,0.0,1.3,75,0.00,,,0.00,WUHU216HW,2013-02-02 01:02:00,
2013-02-01 19:07:00,5.4,-1.2,29.85,NW,315,0.2,1.3,74,0.00,,,0.00,WUHU216HW,2013-02-02 01:07:00,
2013-02-01 19:12:00,5.4,-1.2,29.85,NW,315,0.0,1.1,74,0.00,,,0.00,WUHU216HW,2013-02-02 01:12:00,
2013-02-01 19:17:00,5.4,-1.2,29.85,NW,315,0.0,1.1,74,0.00,,,0.00,WUHU216HW,2013-02-02 01:17:00,
2013-02-01 19:22:00,5.2,-1.3,29.84,NW,315,0.4,0.7,74,0.00,,,0.00,WUHU216HW,2013-02-02 01:22:00,
2013-02-01 19:27:00,5.2,-1.3,29.84,NW,315,0.2,1.1,74,0.00,,,0.00,WUHU216HW,2013-02-02 01:27:00,
2013-02-01 19:32:00,5.2,-1.1,29.84,NW,315,0.0,1.1,75,0.00,,,0.00,WUHU216HW,2013-02-02 01:32:00,
2013-02-01 19:37:00,5.4,-0.9,29.83,NW,315,0.4,1.1,75,0.00,,,0.00,WUHU216HW,2013-02-02 01:37:00,
2013-02-01 19:42:00,5.4,-0.9,29.83,NW,315,0.4,0.9,75,0.00,,,0.00,WUHU216HW,2013-02-02 01:42:00,
2013-02-01 19:47:00,5.4,-0.9,29.83,NW,315,0.0,1.1,75,0.00,,,0.00,WUHU216HW,2013-02-02 01:47:00,
2013-02-01 19:52:00,5.4,-0.9,29.83,NW,315,0.0,1.1,75,0.00,,,0.00,WUHU216HW,2013-02-02 01:52:00,
2013-02-01 19:57:00,5.4,-0.9,29.83,NW,315,0.2,0.4,75,0.00,,,0.00,WUHU216HW,2013-02-02 01:57:00,
2013-02-01 20:02:00,5.4,-0.9,29.83,NW,315,0.0,0.4,75,0.00,,,0.00,WUHU216HW,2013-02-02 02:02:00,
2013-02-01 20:07:00,5.4,-0.9,29.83,NW,315,0.0,0.4,75,0.00,,,0.00,WUHU216HW,2013-02-02 02:07:00,
2013-02-01 20:12:00,5.6,-0.7,29.83,NW,315,0.4,0.4,75,0.00,,,0.00,WUHU216HW,2013-02-02 02:12:00,
2013-02-01 20:17:00,5.6,-0.7,29.83,NW,315,0.2,0.4,75,0.00,,,0.00,WUHU216HW,2013-02-02 02:17:00,
2013-02-01 20:22:00,5.6,-0.7,29.83,NW,315,0.2,0.4,75,0.00,,,0.00,WUHU216HW,2013-02-02 02:22:00,
2013-02-01 20:27:00,5.6,-0.7,29.83,NW,315,0.0,0.4,75,0.00,,,0.00,WUHU216HW,2013-02-02 02:27:00,
2013-02-01 20:32:00,5.8,-0.5,29.83,NW,315,0.2,0.4,75,0.00,,,0.00,WUHU216HW,2013-02-02 02:32:00,
2013-02-01 20:37:00,5.8,-0.5,29.83,NW,315,0.0,0.4,75,0.00,,,0.00,WUHU216HW,2013-02-02 02:37:00,
2013-02-01 20:42:00,5.8,-0.5,29.83,NW,315,0.0,0.4,75,0.00,,,0.00,WUHU216HW,2013-02-02 02:42:00,
2013-02-01 20:47:00,5.8,-0.5,29.83,NW,315,0.2,0.4,75,0.00,,,0.00,WUHU216HW,2013-02-02 02:47:00,
2013-02-01 20:52:00,5.8,-0.5,29.83,NW,315,0.2,0.7,75,0.00,,,0.00,WUHU216HW,2013-02-02 02:52:00,
2013-02-01 20:57:00,5.9,-0.1,29.83,NW,315,0.4,0.9,76,0.00,,,0.00,WUHU216HW,2013-02-02 02:57:00,
2013-02-01 21:02:00,5.9,-0.1,29.83,NW,315,0.0,0.9,76,0.00,,,0.00,WUHU216HW,2013-02-02 03:02:00,
2013-02-01 21:07:00,6.1,0.1,29.82,NW,315,0.0,0.9,76,0.00,,,0.00,WUHU216HW,2013-02-02 03:07:00,
2013-02-01 21:12:00,6.1,0.1,29.82,NW,315,0.2,0.9,76,0.00,,,0.00,WUHU216HW,2013-02-02 03:12:00,
2013-02-01 21:17:00,6.1,0.1,29.82,NW,315,0.0,0.7,76,0.00,,,0.00,WUHU216HW,2013-02-02 03:17:00,
2013-02-01 21:22:00,6.1,0.1,29.82,NW,315,0.0,0.7,76,0.00,,,0.00,WUHU216HW,2013-02-02 03:22:00,
2013-02-01 21:27:00,6.1,0.1,29.82,NW,315,0.0,0.7,76,0.00,,,0.00,WUHU216HW,2013-02-02 03:27:00,
2013-02-01 21:32:00,6.3,0.3,29.82,NW,315,0.0,1.3,76,0.00,,,0.00,WUHU216HW,2013-02-02 03:32:00,
2013-02-01 21:37:00,6.3,0.3,29.81,NW,315,0.0,1.3,76,0.00,,,0.00,WUHU216HW,2013-02-02 03:37:00,
2013-02-01 21:42:00,6.5,0.5,29.81,NW,315,0.2,0.2,76,0.00,,,0.00,WUHU216HW,2013-02-02 03:42:00,
2013-02-01 21:47:00,6.7,0.9,29.81,NW,315,0.0,0.7,77,0.00,,,0.00,WUHU216HW,2013-02-02 03:47:00,
2013-02-01 21:52:00,6.8,1.1,29.81,NW,315,0.0,0.9,77,0.00,,,0.00,WUHU216HW,2013-02-02 03:52:00,
2013-02-01 21:57:00,6.8,1.1,29.81,NW,315,0.0,0.9,77,0.00,,,0.00,WUHU216HW,2013-02-02 03:57:00,
2013-02-01 22:02:00,6.8,1.1,29.81,NW,315,0.2,0.4,77,0.00,,,0.00,WUHU216HW,2013-02-02 04:02:00,
2013-02-01 22:07:00,7.0,1.3,29.81,NW,315,0.0,0.4,77,0.00,,,0.00,WUHU216HW,2013-02-02 04:07:00,
2013-02-01 22:12:00,7.0,1.3,29.81,NW,315,0.0,0.4,77,0.00,,,0.00,WUHU216HW,2013-02-02 04:12:00,
2013-02-01 22:17:00,7.2,1.4,29.81,NW,315,0.2,0.4,77,0.00,,,0.00,WUHU216HW,2013-02-02 04:17:00,
2013-02-01 22:22:00,7.2,1.4,29.81,NW,315,0.2,0.4,77,0.00,,,0.00,WUHU216HW,2013-02-02 04:22:00,
2013-02-01 22:27:00,7.2,1.4,29.81,NW,315,0.4,0.9,77,0.00,,,0.00,WUHU216HW,2013-02-02 04:27:00,
2013-02-01 22:32:00,7.2,1.8,29.81,NW,315,0.0,0.9,78,0.00,,,0.00,WUHU216HW,2013-02-02 04:32:00,
2013-02-01 22:37:00,7.4,2.0,29.81,NW,315,0.0,0.4,78,0.00,,,0.00,WUHU216HW,2013-02-02 04:37:00,
2013-02-01 22:42:00,7.2,1.8,29.81,NW,315,0.0,0.4,78,0.00,,,0.00,WUHU216HW,2013-02-02 04:42:00,
2013-02-01 22:47:00,7.4,2.0,29.81,NW,315,0.0,0.4,78,0.00,,,0.00,WUHU216HW,2013-02-02 04:47:00,
2013-02-01 22:52:00,7.4,2.0,29.80,NW,315,0.0,0.4,78,0.00,,,0.00,WUHU216HW,2013-02-02 04:52:00,
2013-02-01 22:57:00,7.4,2.0,29.81,NW,315,0.0,0.2,78,0.00,,,0.00,WUHU216HW,2013-02-02 04:57:00,
2013-02-01 23:00:00,7.4,2.0,29.81,NW,315,0.0,0.2,78,0.00,,,0.00,WUHU216HW,2013-02-02 05:00:00,
2013-02-01 23:05:00,7.4,2.0,29.81,NW,315,0.0,0.4,78,0.00,,,0.00,WUHU216HW,2013-02-02 05:05:00,
2013-02-01 23:10:00,7.4,2.0,29.81,NW,315,0.2,0.4,78,0.00,,,0.00,WUHU216HW,2013-02-02 05:10:00,
2013-02-01 23:15:00,7.6,2.2,29.81,NW,315,0.0,0.4,78,0.00,,,0.00,WUHU216HW,2013-02-02 05:15:00,
2013-02-01 23:20:00,7.6,2.2,29.81,NW,315,0.0,0.4,78,0.00,,,0.00,WUHU216HW,2013-02-02 05:20:00,
2013-02-01 23:25:00,7.6,2.2,29.81,NW,315,0.2,0.4,78,0.00,,,0.00,WUHU216HW,2013-02-02 05:25:00,
2013-02-01 23:30:00,7.6,2.2,29.81,NW,315,0.0,0.4,78,0.00,,,0.00,WUHU216HW,2013-02-02 05:30:00,
2013-02-01 23:35:00,7.6,2.2,29.81,NW,315,0.0,0.4,78,0.00,,,0.00,WUHU216HW,2013-02-02 05:35:00,
2013-02-01 23:40:00,7.6,2.4,29.81,NW,315,0.0,0.4,79,0.00,,,0.00,WUHU216HW,2013-02-02 05:40:00,
2013-02-01 23:45:00,7.7,2.6,29.81,NW,315,0.0,0.4,79,0.00,,,0.00,WUHU216HW,2013-02-02 05:45:00,
2013-02-01 23:50:00,7.7,2.6,29.81,NW,315,0.0,0.2,79,0.00,,,0.00,WUHU216HW,2013-02-02 05:50:00,
2013-02-01 23:55:00,7.7,2.6,29.81,NW,315,0.4,0.4,79,0.00,,,0.00,WUHU216HW,2013-02-02 05:55:00,